SCP
0 0 0 0 0 0 0 0 0 0 0 0 0 0 0 0 0 0 0 0 0 0 1 1 1 1 0 2 1 2 1 1 0 0 0 0 0 0 0 0 0 0 0
0 0 0 0 0 0 0 0 0 0 0 0 0 0 0 0 0 0 0 0 0 0 0 0 1 1 0 0 1 1 1 1 0 0 0 0 0 0 0 0 0 0 0
0 0 0 0 0 0 0 0 0 0 0 0 0 0 0 0 0 0 0 0 0 0 0 0 1 1 0 0 1 1 1 0 0 0 0 0 0 0 0 0 0 0 0
0 0 0 0 0 0 0 0 0 0 0 0 0 0 0 0 0 0 0 0 0 -0 -0 0 1 1 0 0 1 1 1 0 0 0 0 0 0 0 0 0 0 0 0
0 0 0 0 0 0 0 0 0 0 0 0 0 0 0 0 0 -0 0 -0 -0 -1 -0 0 0 1 0 0 0 1 0 0 0 0 0 0 0 0 0 0 0 0 0
0 0 0 0 0 0 0 0 0 0 0 0 0 0 0 0 -0 -0 0 -0 -0 -0 0 0 1 0 0 0 0 0 0 0 0 0 0 0 0 0 0 0 0 0 0
0 0 0 0 0 0 0 0 0 0 0 0 0 0 0 -0 -0 -0 -0 -0 -0 -0 0 0 0 0 0 0 0 0 0 0 0 0 0 0 0 0 0 0 0 0 0
0 0 0 0 0 0 0 0 0 0 0 0 0 0 0 0 0 0 -0 0 0 0 0 0 0 0 0 0 0 0 0 0 0 0 0 0 0 0 0 0 0 0 0
0 0 0 0 0 0 0 0 0 0 0 0 0 0 0 0 0 0 -0 0 0 0 0 0 0 0 0 0 0 0 0 0 0 0 0 0 0 0 0 0 0 0 0
0 0 0 0 0 0 0 0 0 0 0 0 0 0 0 -0 0 -0 -0 0 0 0 0 0 0 0 0 0 0 0 0 0 0 0 0 0 0 0 0 0 0 0 0
0 0 0 0 0 0 0 0 0 0 0 -0 0 0 -0 -0 0 -0 -0 0 0 0 0 0 0 0 0 0 0 0 0 0 0 0 0 0 0 0 0 0 0 0 0
0 0 0 0 0 0 0 0 0 0 -0 -0 -0 -0 -0 -0 0 -0 -0 0 0 0 0 0 0 -0 0 0 0 0 0 0 0 0 0 0 0 0 0 0 0 0 0
0 0 0 0 0 0 0 0 0 -0 -0 -0 -0 -0 -0 -0 -0 -0 0 0 0 0 0 0 -0 0 0 0 0 0 0 0 0 0 0 0 0 0 0 0 0 0 0
0 0 0 0 0 0 0 0 -0 -0 0 0 -0 -0 0 0 -0 -0 -0 0 0 0 0 0 0 0 0 0 0 0 0 0 0 0 0 0 0 0 0 0 0 0 0
0 0 0 0 0 0 0 0 0 0 0 -0 0 0 0 0 0 0 0 0 0 0 0 0 0 0 0 0 0 0 0 0 0 0 0 0 0 0 0 0 0 0 0
0 0 0 0 0 0 0 0 0 0 0 -0 -0 0 0 0 0 0 0 0 0 0 0 0 0 0 0 0 0 0 0 0 0 0 0 0 0 0 0 0 0 0 0
0 0 0 0 -0 -0 0 0 0 0 -0 -0 -0 0 0 0 0 0 0 0 0 0 0 0 0 0 0 0 0 0 0 0 0 0 0 0 0 0 0 0 0 0 0
0 0 0 0 0 -0 0 -0 0 0 -0 0 -0 0 0 0 0 0 0 0 0 0 0 0 0 0 0 0 0 0 0 0 0 0 0 0 0 0 0 0 0 0 0
0 0 0 -0 0 0 -0 0 0 0 0 -0 0 0 0 -0 0 0 0 0 0 0 0 0 0 0 0 0 0 0 0 0 0 0 0 0 0 0 0 0 0 0 0
0 -0 -0 -0 0 0 0 -0 -0 -0 -0 -0 0 0 -0 -0 0 0 0 0 0 0 0 0 0 0 0 0 0 0 0 0 0 0 0 0 0 0 0 0 0 0 0
-0 -0 -0 -0 0 0 -0 0 0 -0 -0 -0 -0 -0 -0 0 0 -0 0 0 0 0 0 0 0 0 0 0 0 0 0 0 0 0 0 0 0 0 0 0 0 0 0
-0 -0 -0 -0 -0 -0 0 -0 0 0 -0 -0 0 0 -0 0 0 0 0 0 0 0 0 0 0 0 0 0 0 0 0 0 0 0 0 0 0 0 0 0 0 0 0
-0 -0 -0 -0 -0 -0 -0 -0 -0 0 0 -0 -0 0 0 0 0 0 0 0 0 0 0 0 0 0 0 0 0 0 0 0 0 0 0 0 0 0 0 0 0 0 0
-0 -0 -0 -0 -0 -0 -0 -0 -0 -0 -0 0 0 -0 0 0 0 0 0 0 0 0 0 0 0 0 0 0 0 0 0 0 0 0 0 0 0 0 0 0 0 0 0
-0 -0 -0 -0 -0 0 -0 -0 -0 -0 -0 -0 -0 -0 0 0 0 0 0 0 0 0 0 0 0 0 0 0 0 0 0 0 0 0 0 0 0 0 0 0 0 0 0
-0 -0 -0 -0 -0 -0 -0 -0 0 0 0 -0 -0 -0 -0 0 0 0 0 0 0 0 0 0 0 0 0 0 0 0 0 0 0 0 0 0 0 0 0 0 0 0 0
Wind_Speed_500mb
65 75 84 81 72 69 73 75 76 80 82 82 79 83 84 83 85 86 86 87 82 95 100 101 107 132 119 105 113 102 93 84 69 74 80 64 64 59 59 45 39 31 24
70 79 82 74 69 69 72 70 69 77 80 81 80 83 82 81 80 82 89 90 88 91 108 111 114 127 126 111 116 106 96 88 81 70 66 71 62 65 62 55 43 38 30
73 80 82 75 73 71 72 73 77 79 82 83 82 84 83 80 82 84 90 89 90 100 109 117 124 128 127 113 109 103 103 100 89 76 60 71 71 73 71 58 50 43 36
76 82 78 75 72 73 74 75 78 81 87 87 86 88 86 80 85 88 91 92 83 104 105 122 128 129 125 116 110 104 105 95 88 81 74 78 79 82 77 69 62 52 47
79 79 74 73 73 73 71 75 82 89 90 89 88 88 85 78 88 85 83 78 97 113 120 116 126 127 107 118 115 107 100 101 94 85 79 77 87 91 87 79 67 59 51
77 71 68 71 72 78 80 81 83 86 85 88 92 86 79 77 83 81 85 78 96 105 95 139 125 113 113 105 106 108 99 104 107 100 89 84 90 82 88 85 77 71 66
67 63 67 72 75 78 80 81 86 91 93 97 91 85 74 71 73 77 71 102 102 111 95 121 125 108 97 90 100 97 101 95 94 109 94 86 83 80 94 90 81 76 77
59 63 68 72 74 74 77 80 83 86 85 87 89 77 66 64 59 67 86 60 84 99 119 123 114 113 94 99 92 96 101 87 85 89 86 77 70 57 71 72 83 83 63
57 64 68 67 70 73 74 78 77 78 79 75 68 58 54 59 61 52 59 65 70 74 93 108 109 101 99 99 97 95 96 90 81 71 67 59 53 54 68 76 82 85 69
60 63 64 62 62 68 71 73 70 64 64 51 49 52 60 74 68 54 67 49 57 93 98 102 94 103 88 95 102 100 108 100 84 70 68 62 59 61 53 57 72 85 82
61 58 59 59 57 58 57 51 55 45 47 54 50 77 68 66 77 63 64 34 62 70 71 76 85 96 94 101 94 105 103 105 89 77 72 71 72 73 63 63 74 71 79
59 56 55 56 53 52 48 51 52 52 53 58 69 87 65 54 53 56 40 35 56 66 66 71 81 97 94 96 94 100 102 102 98 88 76 75 77 74 73 70 74 69 71
55 55 55 54 50 46 48 54 56 57 61 67 73 85 62 37 29 27 16 29 50 42 55 58 82 113 118 96 100 100 93 97 97 92 90 86 80 76 76 75 74 68 68
52 53 53 54 53 46 42 45 49 54 57 65 72 87 60 23 26 31 16 32 43 35 44 28 70 102 129 113 99 97 90 84 88 92 89 83 80 82 78 77 77 70 70
46 49 51 51 52 52 48 46 44 41 42 54 59 69 55 7 2 5 16 37 45 41 49 40 40 99 105 95 85 85 81 81 94 95 83 83 86 78 77 77 77 77 78
48 50 49 50 54 55 58 49 28 32 25 26 38 57 26 9 9 13 16 36 49 42 61 58 54 49 49 69 78 77 79 87 92 82 80 84 82 76 76 82 82 82 81
45 48 44 46 53 54 53 55 59 24 17 24 33 39 35 14 10 6 4 30 34 54 55 68 63 57 69 69 71 70 70 70 62 60 71 79 76 75 78 86 86 85 79
41 42 41 43 46 46 45 46 48 51 50 38 26 36 41 38 28 19 9 25 50 54 60 69 77 76 81 78 70 74 71 55 51 63 75 71 72 74 83 88 90 88 81
45 43 40 37 40 40 41 43 44 47 47 40 28 16 19 27 22 23 39 20 24 32 57 71 84 88 90 82 55 40 43 52 66 74 75 69 70 76 81 85 90 86 81
40 39 39 42 42 43 44 48 49 48 47 45 38 42 26 13 18 31 21 17 21 25 36 57 70 79 86 82 58 44 39 40 55 63 65 64 68 72 80 85 92 90 80
38 37 40 45 47 49 47 48 48 48 48 42 37 35 33 21 21 25 33 31 25 23 17 20 47 57 72 81 67 47 38 40 54 52 54 58 62 70 77 82 89 83 78
39 42 45 47 45 50 51 49 49 48 49 46 37 29 30 31 23 24 23 26 30 27 25 37 49 39 56 47 50 47 43 44 50 50 55 57 60 66 71 78 82 85 81
40 43 48 46 46 46 48 49 51 51 50 50 45 38 34 36 35 28 24 25 21 20 21 20 20 19 23 26 25 25 29 37 43 45 47 52 56 64 70 77 78 77 79
42 44 49 50 48 45 48 47 48 51 51 52 53 50 43 38 36 34 30 26 24 23 24 20 17 16 15 16 19 23 28 29 29 34 38 42 51 56 60 71 71 71 78
41 42 48 52 49 45 43 49 48 52 61 60 57 53 49 45 40 37 32 26 24 21 21 22 21 19 18 17 15 14 17 23 27 27 33 36 38 48 57 57 59 64 70
33 38 42 46 58 59 55 49 51 48 48 58 62 57 54 50 48 41 37 32 29 26 21 20 19 17 16 17 16 17 16 17 21 23 30 38 44 48 47 49 59 66 62
Wind_Direction_500mb
317 319 321 319 316 310 305 302 299 299 298 298 296 290 282 272 266 271 272 271 262 246 242 233 221 209 209 209 216 215 216 215 209 213 221 223 207 208 211 206 214 223 222
319 320 320 317 314 308 306 303 301 299 298 297 294 290 282 272 268 273 272 271 261 251 239 231 222 213 204 209 213 215 215 215 216 216 216 215 206 206 208 208 210 214 213
318 320 319 315 312 308 305 306 303 301 300 296 292 291 284 275 269 271 275 271 258 253 240 226 212 204 199 206 215 216 218 217 220 226 220 206 200 204 199 201 206 207 203
320 321 317 314 314 312 310 308 305 301 301 298 292 290 288 275 269 276 273 268 252 238 240 220 203 197 198 201 210 214 213 213 215 220 221 204 203 198 200 199 194 199 200
322 321 319 318 317 317 313 309 305 301 301 300 297 294 289 271 270 282 285 272 259 249 237 205 201 200 196 203 209 211 212 210 207 210 205 198 199 192 197 196 202 198 194
324 322 323 323 322 321 316 311 306 302 302 302 302 301 292 271 269 286 276 262 249 254 222 197 198 199 203 211 213 216 214 210 206 207 206 208 198 200 204 202 199 191 190
325 326 326 325 322 319 318 314 309 303 301 300 299 300 294 273 277 293 261 266 240 228 208 183 197 199 202 210 210 210 215 215 216 215 211 212 205 204 204 201 204 203 201
325 325 328 326 323 321 319 316 315 311 305 301 300 300 290 277 293 288 299 244 218 186 197 195 195 199 203 208 207 209 212 211 218 218 218 217 220 213 209 213 202 200 200
324 327 328 328 325 326 323 320 318 315 307 303 301 304 298 296 289 292 290 256 212 196 181 191 194 200 197 206 205 205 205 206 207 208 212 214 214 207 214 206 201 198 191
328 328 329 328 329 331 334 335 333 317 308 308 320 334 307 292 293 280 268 259 194 199 199 197 203 208 207 208 207 201 202 200 196 196 199 201 204 210 212 219 208 197 195
328 331 331 331 333 336 345 352 346 345 353 1 343 340 318 293 290 289 290 233 210 208 208 198 203 207 212 207 216 207 204 199 196 198 194 197 197 203 208 210 213 212 200
335 336 336 336 333 339 337 342 345 344 352 350 348 341 322 303 286 292 278 215 212 211 223 219 220 213 211 210 213 215 206 203 197 197 199 198 195 195 201 204 208 213 209
339 342 340 338 341 336 334 330 332 338 349 353 354 344 330 310 302 296 271 211 204 206 215 226 233 218 212 209 209 201 197 196 201 196 194 196 197 196 196 199 201 204 203
343 346 345 345 347 341 336 334 332 335 337 347 348 346 336 318 319 298 249 203 211 208 205 220 197 191 190 199 200 196 189 191 197 194 193 192 193 195 196 195 192 193 195
347 349 348 348 347 346 346 348 338 334 333 342 341 343 333 317 281 213 211 190 209 198 189 177 136 156 170 173 178 185 185 190 193 192 188 189 192 190 192 190 191 187 191
345 347 350 350 348 350 348 352 1 343 331 334 340 355 333 266 236 253 211 208 203 182 175 171 171 164 161 171 178 183 187 191 191 189 191 190 187 188 190 190 192 190 190
342 342 352 356 352 353 353 353 351 9 335 343 337 8 29 53 242 305 281 206 206 189 182 186 183 187 185 186 176 172 173 181 183 184 192 191 191 195 194 193 189 193 192
354 354 360 7 357 359 360 358 360 1 1 9 0 16 9 62 72 66 130 175 178 191 193 185 183 176 176 169 170 179 175 171 179 198 201 198 197 201 196 195 194 194 194
5 2 7 20 13 10 9 14 9 8 11 15 17 28 27 39 63 108 144 130 163 174 167 163 160 155 161 163 163 163 174 189 196 198 198 198 203 203 200 200 199 197 196
7 11 22 28 30 27 25 21 21 17 18 18 23 27 38 36 27 52 57 82 120 113 159 173 157 158 160 165 166 179 194 215 207 200 199 201 204 206 205 204 203 199 198
14 20 35 38 36 35 37 30 26 26 25 26 22 26 28 45 51 46 67 70 78 89 132 137 150 154 162 163 173 198 226 223 210 208 206 208 205 203 204 205 204 202 201
32 35 36 37 40 40 37 38 35 32 32 30 31 25 36 52 56 52 63 74 80 88 110 156 167 164 157 178 210 232 240 231 216 212 211 207 206 206 207 207 207 204 202
33 33 33 34 40 43 44 46 40 37 39 40 40 42 45 50 58 64 62 75 82 87 93 98 117 160 191 205 213 226 225 219 221 219 215 216 213 213 211 210 208 203 200
31 30 30 32 31 35 42 44 48 48 45 45 47 49 50 53 56 61 67 71 84 92 103 111 114 129 149 174 186 190 199 203 211 221 228 228 223 216 210 209 209 202 199
30 31 28 32 31 31 38 43 45 45 42 42 48 49 52 56 61 65 69 73 78 86 94 100 111 113 118 131 150 172 187 200 207 214 218 227 225 220 215 213 207 199 197
29 34 35 46 52 49 46 44 45 49 50 46 45 49 53 55 55 59 67 75 88 96 105 116 120 130 132 138 153 163 175 180 190 205 216 220 221 216 214 208 201 193 191
Wind_Speed_850mb
65 75 84 81 72 69 73 75 76 80 82 82 79 83 84 83 85 86 86 87 82 95 100 101 107 132 119 105 113 102 93 84 69 74 80 64 64 59 59 45 39 31 24
70 79 82 74 69 69 72 70 69 77 80 81 80 83 82 81 80 82 89 90 88 91 108 111 114 127 126 111 116 106 96 88 81 70 66 71 62 65 62 55 43 38 30
73 80 82 75 73 71 72 73 77 79 82 83 82 84 83 80 82 84 90 89 90 100 109 117 124 128 127 113 109 103 103 100 89 76 60 71 71 73 71 58 50 43 36
76 82 78 75 72 73 74 75 78 81 87 87 86 88 86 80 85 88 91 92 83 104 105 122 128 129 125 116 110 104 105 95 88 81 74 78 79 82 77 69 62 52 47
79 79 74 73 73 73 71 75 82 89 90 89 88 88 85 78 88 85 83 78 97 113 120 116 126 127 107 118 115 107 100 101 94 85 79 77 87 91 87 79 67 59 51
77 71 68 71 72 78 80 81 83 86 85 88 92 86 79 77 83 81 85 78 96 105 95 139 125 113 113 105 106 108 99 104 107 100 89 84 90 82 88 85 77 71 66
67 63 67 72 75 78 80 81 86 91 93 97 91 85 74 71 73 77 71 102 102 111 95 121 125 108 97 90 100 97 101 95 94 109 94 86 83 80 94 90 81 76 77
59 63 68 72 74 74 77 80 83 86 85 87 89 77 66 64 59 67 86 60 84 99 119 123 114 113 94 99 92 96 101 87 85 89 86 77 70 57 71 72 83 83 63
57 64 68 67 70 73 74 78 77 78 79 75 68 58 54 59 61 52 59 65 70 74 93 108 109 101 99 99 97 95 96 90 81 71 67 59 53 54 68 76 82 85 69
60 63 64 62 62 68 71 73 70 64 64 51 49 52 60 74 68 54 67 49 57 93 98 102 94 103 88 95 102 100 108 100 84 70 68 62 59 61 53 57 72 85 82
61 58 59 59 57 58 57 51 55 45 47 54 50 77 68 66 77 63 64 34 62 70 71 76 85 96 94 101 94 105 103 105 89 77 72 71 72 73 63 63 74 71 79
59 56 55 56 53 52 48 51 52 52 53 58 69 87 65 54 53 56 40 35 56 66 66 71 81 97 94 96 94 100 102 102 98 88 76 75 77 74 73 70 74 69 71
55 55 55 54 50 46 48 54 56 57 61 67 73 85 62 37 29 27 16 29 50 42 55 58 82 113 118 96 100 100 93 97 97 92 90 86 80 76 76 75 74 68 68
52 53 53 54 53 46 42 45 49 54 57 65 72 87 60 23 26 31 16 32 43 35 44 28 70 102 129 113 99 97 90 84 88 92 89 83 80 82 78 77 77 70 70
46 49 51 51 52 52 48 46 44 41 42 54 59 69 55 7 2 5 16 37 45 41 49 40 40 99 105 95 85 85 81 81 94 95 83 83 86 78 77 77 77 77 78
48 50 49 50 54 55 58 49 28 32 25 26 38 57 26 9 9 13 16 36 49 42 61 58 54 49 49 69 78 77 79 87 92 82 80 84 82 76 76 82 82 82 81
45 48 44 46 53 54 53 55 59 24 17 24 33 39 35 14 10 6 4 30 34 54 55 68 63 57 69 69 71 70 70 70 62 60 71 79 76 75 78 86 86 85 79
41 42 41 43 46 46 45 46 48 51 50 38 26 36 41 38 28 19 9 25 50 54 60 69 77 76 81 78 70 74 71 55 51 63 75 71 72 74 83 88 90 88 81
45 43 40 37 40 40 41 43 44 47 47 40 28 16 19 27 22 23 39 20 24 32 57 71 84 88 90 82 55 40 43 52 66 74 75 69 70 76 81 85 90 86 81
40 39 39 42 42 43 44 48 49 48 47 45 38 42 26 13 18 31 21 17 21 25 36 57 70 79 86 82 58 44 39 40 55 63 65 64 68 72 80 85 92 90 80
38 37 40 45 47 49 47 48 48 48 48 42 37 35 33 21 21 25 33 31 25 23 17 20 47 57 72 81 67 47 38 40 54 52 54 58 62 70 77 82 89 83 78
39 42 45 47 45 50 51 49 49 48 49 46 37 29 30 31 23 24 23 26 30 27 25 37 49 39 56 47 50 47 43 44 50 50 55 57 60 66 71 78 82 85 81
40 43 48 46 46 46 48 49 51 51 50 50 45 38 34 36 35 28 24 25 21 20 21 20 20 19 23 26 25 25 29 37 43 45 47 52 56 64 70 77 78 77 79
42 44 49 50 48 45 48 47 48 51 51 52 53 50 43 38 36 34 30 26 24 23 24 20 17 16 15 16 19 23 28 29 29 34 38 42 51 56 60 71 71 71 78
41 42 48 52 49 45 43 49 48 52 61 60 57 53 49 45 40 37 32 26 24 21 21 22 21 19 18 17 15 14 17 23 27 27 33 36 38 48 57 57 59 64 70
33 38 42 46 58 59 55 49 51 48 48 58 62 57 54 50 48 41 37 32 29 26 21 20 19 17 16 17 16 17 16 17 21 23 30 38 44 48 47 49 59 66 62
Wind_Direction_850mb
317 319 321 319 316 310 305 302 299 299 298 298 296 290 282 272 266 271 272 271 262 246 242 233 221 209 209 209 216 215 216 215 209 213 221 223 207 208 211 206 214 223 222
319 320 320 317 314 308 306 303 301 299 298 297 294 290 282 272 268 273 272 271 261 251 239 231 222 213 204 209 213 215 215 215 216 216 216 215 206 206 208 208 210 214 213
318 320 319 315 312 308 305 306 303 301 300 296 292 291 284 275 269 271 275 271 258 253 240 226 212 204 199 206 215 216 218 217 220 226 220 206 200 204 199 201 206 207 203
320 321 317 314 314 312 310 308 305 301 301 298 292 290 288 275 269 276 273 268 252 238 240 220 203 197 198 201 210 214 213 213 215 220 221 204 203 198 200 199 194 199 200
322 321 319 318 317 317 313 309 305 301 301 300 297 294 289 271 270 282 285 272 259 249 237 205 201 200 196 203 209 211 212 210 207 210 205 198 199 192 197 196 202 198 194
324 322 323 323 322 321 316 311 306 302 302 302 302 301 292 271 269 286 276 262 249 254 222 197 198 199 203 211 213 216 214 210 206 207 206 208 198 200 204 202 199 191 190
325 326 326 325 322 319 318 314 309 303 301 300 299 300 294 273 277 293 261 266 240 228 208 183 197 199 202 210 210 210 215 215 216 215 211 212 205 204 204 201 204 203 201
325 325 328 326 323 321 319 316 315 311 305 301 300 300 290 277 293 288 299 244 218 186 197 195 195 199 203 208 207 209 212 211 218 218 218 217 220 213 209 213 202 200 200
324 327 328 328 325 326 323 320 318 315 307 303 301 304 298 296 289 292 290 256 212 196 181 191 194 200 197 206 205 205 205 206 207 208 212 214 214 207 214 206 201 198 191
328 328 329 328 329 331 334 335 333 317 308 308 320 334 307 292 293 280 268 259 194 199 199 197 203 208 207 208 207 201 202 200 196 196 199 201 204 210 212 219 208 197 195
328 331 331 331 333 336 345 352 346 345 353 1 343 340 318 293 290 289 290 233 210 208 208 198 203 207 212 207 216 207 204 199 196 198 194 197 197 203 208 210 213 212 200
335 336 336 336 333 339 337 342 345 344 352 350 348 341 322 303 286 292 278 215 212 211 223 219 220 213 211 210 213 215 206 203 197 197 199 198 195 195 201 204 208 213 209
339 342 340 338 341 336 334 330 332 338 349 353 354 344 330 310 302 296 271 211 204 206 215 226 233 218 212 209 209 201 197 196 201 196 194 196 197 196 196 199 201 204 203
343 346 345 345 347 341 336 334 332 335 337 347 348 346 336 318 319 298 249 203 211 208 205 220 197 191 190 199 200 196 189 191 197 194 193 192 193 195 196 195 192 193 195
347 349 348 348 347 346 346 348 338 334 333 342 341 343 333 317 281 213 211 190 209 198 189 177 136 156 170 173 178 185 185 190 193 192 188 189 192 190 192 190 191 187 191
345 347 350 350 348 350 348 352 1 343 331 334 340 355 333 266 236 253 211 208 203 182 175 171 171 164 161 171 178 183 187 191 191 189 191 190 187 188 190 190 192 190 190
342 342 352 356 352 353 353 353 351 9 335 343 337 8 29 53 242 305 281 206 206 189 182 186 183 187 185 186 176 172 173 181 183 184 192 191 191 195 194 193 189 193 192
354 354 360 7 357 359 360 358 360 1 1 9 0 16 9 62 72 66 130 175 178 191 193 185 183 176 176 169 170 179 175 171 179 198 201 198 197 201 196 195 194 194 194
5 2 7 20 13 10 9 14 9 8 11 15 17 28 27 39 63 108 144 130 163 174 167 163 160 155 161 163 163 163 174 189 196 198 198 198 203 203 200 200 199 197 196
7 11 22 28 30 27 25 21 21 17 18 18 23 27 38 36 27 52 57 82 120 113 159 173 157 158 160 165 166 179 194 215 207 200 199 201 204 206 205 204 203 199 198
14 20 35 38 36 35 37 30 26 26 25 26 22 26 28 45 51 46 67 70 78 89 132 137 150 154 162 163 173 198 226 223 210 208 206 208 205 203 204 205 204 202 201
32 35 36 37 40 40 37 38 35 32 32 30 31 25 36 52 56 52 63 74 80 88 110 156 167 164 157 178 210 232 240 231 216 212 211 207 206 206 207 207 207 204 202
33 33 33 34 40 43 44 46 40 37 39 40 40 42 45 50 58 64 62 75 82 87 93 98 117 160 191 205 213 226 225 219 221 219 215 216 213 213 211 210 208 203 200
31 30 30 32 31 35 42 44 48 48 45 45 47 49 50 53 56 61 67 71 84 92 103 111 114 129 149 174 186 190 199 203 211 221 228 228 223 216 210 209 209 202 199
30 31 28 32 31 31 38 43 45 45 42 42 48 49 52 56 61 65 69 73 78 86 94 100 111 113 118 131 150 172 187 200 207 214 218 227 225 220 215 213 207 199 197
29 34 35 46 52 49 46 44 45 49 50 46 45 49 53 55 55 59 67 75 88 96 105 116 120 130 132 138 153 163 175 180 190 205 216 220 221 216 214 208 201 193 191